![]() |
EMODnet Physics ERDDAP
Easier access to scientific data |
log in|
Brought to you by EMODnet Physics |
| Dataset Title: | NDBC - Collection of dew point temperature (DEWT) TimeSeries - IN SITU MultiPointTimeSeriesObservation
|
| Institution: | NDBC (Dataset ID: TS_DEWT_NDBC) |
| Information: | Summary
| License
| FGDC
| ISO 19115
| Metadata
| Background
| Subset
| Data Access Form
| Make a graph
|
| Name | Last modified | Size | Description | |
|---|---|---|---|---|
| Parent Directory | - | - | ||
| TWCO1_TS_DEWT_012019.nc | 28-Oct-2024 00:45 | 429366 | ||
| TWCO1_TS_DEWT_012020.nc | 28-Oct-2024 00:45 | 429360 | ||
| TWCO1_TS_DEWT_012021.nc | 28-Oct-2024 00:45 | 419870 | ||
| TWCO1_TS_DEWT_012022.nc | 28-Oct-2024 00:45 | 429570 | ||
| TWCO1_TS_DEWT_012023.nc | 28-Oct-2024 00:45 | 429574 | ||
| TWCO1_TS_DEWT_012024.nc | 28-Oct-2024 00:46 | 429570 | ||
| TWCO1_TS_DEWT_012025.nc | 07-Feb-2025 15:05 | 429574 | ||
| TWCO1_TS_DEWT_012026.nc | 02-Feb-2026 14:58 | 429569 | ||
| TWCO1_TS_DEWT_022019.nc | 28-Oct-2024 00:46 | 429570 | ||
| TWCO1_TS_DEWT_022020.nc | 28-Oct-2024 00:46 | 429574 | ||
| TWCO1_TS_DEWT_022021.nc | 28-Oct-2024 00:46 | 429569 | ||
| TWCO1_TS_DEWT_022022.nc | 28-Oct-2024 00:46 | 429466 | ||
| TWCO1_TS_DEWT_022023.nc | 28-Oct-2024 00:46 | 1112941 | ||
| TWCO1_TS_DEWT_022024.nc | 16-Sep-2024 16:51 | 1111213 | ||
| TWCO1_TS_DEWT_022025.nc | 01-Mar-2025 10:11 | 994870 | ||
| TWCO1_TS_DEWT_022026.nc | 01-Mar-2026 15:45 | 1113930 | ||
| TWCO1_TS_DEWT_032019.nc | 28-Oct-2024 00:46 | 1110981 | ||
| TWCO1_TS_DEWT_032020.nc | 28-Oct-2024 00:46 | 1113691 | ||
| TWCO1_TS_DEWT_032021.nc | 28-Oct-2024 00:46 | 1111145 | ||
| TWCO1_TS_DEWT_032022.nc | 28-Oct-2024 00:46 | 4852585 | ||
| TWCO1_TS_DEWT_032023.nc | 28-Oct-2024 00:46 | 429684 | ||
| TWCO1_TS_DEWT_032025.nc | 02-Apr-2025 08:12 | 429666 | ||
| TWCO1_TS_DEWT_032026.nc | 21-Mar-2026 18:23 | 429696 | ||
| TWCO1_TS_DEWT_042019.nc | 28-Oct-2024 00:46 | 429700 | ||
| TWCO1_TS_DEWT_042020.nc | 28-Oct-2024 00:46 | 429698 | ||
| TWCO1_TS_DEWT_042021.nc | 28-Oct-2024 00:46 | 429689 | ||
| TWCO1_TS_DEWT_042022.nc | 28-Oct-2024 00:47 | 429694 | ||
| TWCO1_TS_DEWT_042023.nc | 28-Oct-2024 00:47 | 429675 | ||
| TWCO1_TS_DEWT_042025.nc | 01-May-2025 07:33 | 429690 | ||
| TWCO1_TS_DEWT_052019.nc | 28-Oct-2024 00:47 | 429703 | ||
| TWCO1_TS_DEWT_052020.nc | 28-Oct-2024 00:47 | 429693 | ||
| TWCO1_TS_DEWT_052021.nc | 28-Oct-2024 00:47 | 429372 | ||
| TWCO1_TS_DEWT_052022.nc | 28-Oct-2024 00:47 | 429696 | ||
| TWCO1_TS_DEWT_052023.nc | 28-Oct-2024 00:47 | 429690 | ||
| TWCO1_TS_DEWT_052025.nc | 01-Jun-2025 09:16 | 429689 | ||
| TWCO1_TS_DEWT_062019.nc | 28-Oct-2024 00:47 | 429697 | ||
| TWCO1_TS_DEWT_062020.nc | 28-Oct-2024 00:47 | 429697 | ||
| TWCO1_TS_DEWT_062021.nc | 28-Oct-2024 00:47 | 422410 | ||
| TWCO1_TS_DEWT_062022.nc | 28-Oct-2024 00:47 | 429913 | ||
| TWCO1_TS_DEWT_062023.nc | 28-Oct-2024 00:47 | 429913 | ||
| TWCO1_TS_DEWT_062025.nc | 01-Jul-2025 07:09 | 429914 | ||
| TWCO1_TS_DEWT_072019.nc | 28-Oct-2024 00:47 | 429913 | ||
| TWCO1_TS_DEWT_072020.nc | 28-Oct-2024 00:47 | 429918 | ||
| TWCO1_TS_DEWT_072021.nc | 28-Oct-2024 00:47 | 427712 | ||
| TWCO1_TS_DEWT_072022.nc | 28-Oct-2024 00:47 | 429912 | ||
| TWCO1_TS_DEWT_072023.nc | 28-Oct-2024 00:47 | 429915 | ||
| TWCO1_TS_DEWT_072025.nc | 01-Aug-2025 07:44 | 429892 | ||
| TWCO1_TS_DEWT_082019.nc | 28-Oct-2024 00:47 | 1112110 | ||
| TWCO1_TS_DEWT_082020.nc | 28-Oct-2024 00:48 | 1267310 | ||
| TWCO1_TS_DEWT_082021.nc | 28-Oct-2024 00:48 | 1143331 | ||
| TWCO1_TS_DEWT_082022.nc | 28-Oct-2024 00:48 | 1268105 | ||
| TWCO1_TS_DEWT_082023.nc | 28-Oct-2024 00:48 | 1263491 | ||
| TWCO1_TS_DEWT_082025.nc | 02-Sep-2025 06:42 | 1268985 | ||
| TWCO1_TS_DEWT_092019.nc | 28-Oct-2024 00:48 | 1266515 | ||
| TWCO1_TS_DEWT_092020.nc | 28-Oct-2024 00:48 | 5488075 | ||
| TWCO1_TS_DEWT_092021.nc | 28-Oct-2024 00:48 | 429349 | ||
| TWCO1_TS_DEWT_092022.nc | 28-Oct-2024 00:48 | 419627 | ||
| TWCO1_TS_DEWT_092023.nc | 28-Oct-2024 00:48 | 429365 | ||
| TWCO1_TS_DEWT_092025.nc | 01-Oct-2025 09:29 | 429357 | ||
| TWCO1_TS_DEWT_102018.nc | 28-Oct-2024 00:48 | 421870 | ||
| TWCO1_TS_DEWT_102019.nc | 28-Oct-2024 00:48 | 429352 | ||
| TWCO1_TS_DEWT_102020.nc | 28-Oct-2024 00:48 | 429360 | ||
| TWCO1_TS_DEWT_102021.nc | 28-Oct-2024 00:48 | 423757 | ||
| TWCO1_TS_DEWT_102022.nc | 28-Oct-2024 00:49 | 429373 | ||
| TWCO1_TS_DEWT_102023.nc | 28-Oct-2024 00:49 | 429369 | ||
| TWCO1_TS_DEWT_102025.nc | 01-Nov-2025 09:02 | 429368 | ||
| TWCO1_TS_DEWT_112018.nc | 28-Oct-2024 00:49 | 429375 | ||
| TWCO1_TS_DEWT_112019.nc | 28-Oct-2024 00:49 | 429370 | ||
| TWCO1_TS_DEWT_112020.nc | 28-Oct-2024 00:49 | 429363 | ||
| TWCO1_TS_DEWT_112021.nc | 28-Oct-2024 00:49 | 422064 | ||
| TWCO1_TS_DEWT_112022.nc | 28-Oct-2024 00:49 | 429371 | ||
| TWCO1_TS_DEWT_112023.nc | 28-Oct-2024 00:49 | 429358 | ||
| TWCO1_TS_DEWT_112024.nc | 17-Jan-2025 20:42 | 429366 | ||
| TWCO1_TS_DEWT_112025.nc | 01-Dec-2025 11:02 | 429568 | ||
| TWCO1_TS_DEWT_122018.nc | 28-Oct-2024 00:49 | 429574 | ||
| TWCO1_TS_DEWT_122019.nc | 28-Oct-2024 00:49 | 429571 | ||
| TWCO1_TS_DEWT_122020.nc | 28-Oct-2024 00:49 | 429573 | ||
| TWCO1_TS_DEWT_122021.nc | 28-Oct-2024 00:49 | 429574 | ||
| TWCO1_TS_DEWT_122022.nc | 28-Oct-2024 00:49 | 429567 | ||
| TWCO1_TS_DEWT_122023.nc | 28-Oct-2024 00:49 | 429570 | ||
| TWCO1_TS_DEWT_122024.nc | 23-Jan-2025 00:56 | 429571 | ||
| TWCO1_TS_DEWT_122025.nc | 01-Jan-2026 10:38 | 429468 | ||